[[{"header":{"parameterUnit":"m.s-1","parameterCategory":1,"la1":30.2991,"la2":30.254,"lo1":-89.0895,"lo2":-89.0444,"dy":0.0017,"dx":0.0017,"nx":28,"ny":28,"refTime":"2024-05-18T03:00:00:Z","depth":0,"parameterNumber":2,"parameterNumberName":"U-component_of_WINDS"},"data":[0,0,0,0,0,0,0,0,0,0,0,0,0,0,0,0,0,0,0,0,0,0,0,0,0,0,0,0,0,0,0,0,0,0,0,0,0,0,0,0,0,0,0,0,0,0,0,0,0,0,0,0,0,0,0,0,0,0,1.9806,1.9806,0,1.9779,1.9779,1.9779,1.9744,1.9744,1.9743,1.9742,1.9715,1.9715,1.9714,0,0,0,0,0,0,0,0,0,0,0,0,0,1.9825,1.9825,1.9806,1.9806,1.9805,1.9779,1.9779,1.9779,1.9744,1.9744,1.9743,1.9742,1.9715,1.9715,1.9714,0,0,0,0,0,0,0,0,0,0,0,0,0,1.981,1.9825,1.9806,1.9785,1.9783,1.9779,1.9779,1.9778,1.9744,1.9743,1.9743,1.9742,1.9715,1.9715,1.9714,1.9729,0,0,1.9713,1.9713,0,0,0,0,0,0,0,0,1.9811,1.9809,1.9788,1.9786,1.9784,1.9764,1.9776,1.9762,1.9745,1.9759,1.9742,1.9741,1.9732,1.973,1.9727,1.9728,1.9727,1.9713,1.9713,1.9713,1.9713,0,0,0,0,0,0,0,1.9812,1.981,1.9795,1.9788,1.9785,1.9776,1.9773,1.9773,1.975,1.9758,1.9755,1.9752,1.973,1.9727,1.9726,1.9726,1.9713,1.9713,1.9713,1.9713,1.9735,1.9736,0,0,0,0,0,0,1.9816,1.9811,1.9796,1.9795,1.9796,1.9777,1.9773,1.9771,1.975,1.9746,1.9753,1.9751,1.9728,1.9726,1.9725,1.9739,1.9713,1.9713,1.9713,1.9734,1.9735,1.9736,0,0,0,0,0,0,1.9817,1.9815,1.9797,1.9802,1.9799,1.9777,1.9776,1.9771,1.9768,1.9747,1.9743,1.9754,1.9728,1.9725,1.9728,1.9737,1.9713,1.9712,1.9733,1.9735,1.9736,1.9768,0,0,0,0,0,0,1.9817,1.9816,1.9821,1.9802,1.9799,1.9801,1.9776,1.9771,1.9768,1.9764,1.9747,1.9743,1.9727,1.9728,1.9727,1.9737,1.9712,1.9732,1.9734,1.9735,1.9766,1.977,1.9774,0,0,0,0,0,1.9818,1.9832,1.9822,1.982,1.9806,1.9802,1.98,1.9781,1.9769,1.9774,1.976,1.9744,1.9737,1.9729,1.9728,1.9737,1.9732,1.9734,1.9735,1.9764,1.9769,1.9774,0,0,0,0,0,0,1.9853,1.9829,1.9818,1.9826,1.9816,1.9796,1.9802,1.9787,1.9781,1.9778,1.9755,1.9751,1.9756,1.9747,1.9738,1.9749,1.9732,1.9733,1.9754,1.9759,1.9763,1.9764,1.9712,0,0,0,0,0,1.9862,1.9861,1.984,1.9849,1.9845,1.9824,1.9822,1.9808,1.9797,1.9793,1.9779,1.9768,1.9763,1.9761,1.9756,1.9765,1.9759,1.977,1.9774,1.9778,1.9779,1.978,1.9784,1.9742,1.9742,1.9742,0,0,1.988,1.9867,1.9867,1.9856,1.9847,1.9845,1.9821,1.9821,1.9819,1.9793,1.9793,1.9783,1.9769,1.9775,1.9776,1.9767,1.9789,1.978,1.9783,1.9782,1.9783,1.9787,1.979,1.9743,1.9743,1.9743,0,0,1.9911,1.9902,1.9907,1.9898,1.9884,1.987,1.9872,1.9853,1.9845,1.9846,1.9825,1.9822,1.9815,1.9806,1.98,1.9826,1.981,1.9825,1.9845,1.9847,1.985,1.9853,1.986,1.9864,1.9827,1.9827,1.9827,0,1.9935,1.9932,1.9912,1.9913,1.9907,1.9883,1.9887,1.9879,1.9865,1.9861,1.9851,1.984,1.983,1.9831,1.9837,1.9834,1.9834,1.9827,1.9852,1.9854,1.9856,1.9863,1.9866,1.9829,1.9828,1.9828,1.9828,0,1.9961,1.996,1.9966,1.9951,1.9947,1.9949,1.9929,1.9927,1.9913,1.99,1.9899,1.9886,1.9876,1.9876,1.9863,1.9875,1.9869,1.9856,1.9838,1.9863,1.9868,1.9871,1.9831,1.983,1.983,1.9829,0,0,2.0014,1.9987,1.999,1.9982,1.9964,1.9962,1.9963,1.9953,1.995,1.9941,1.994,1.9934,1.9921,1.9914,1.99,1.9902,1.9921,1.9888,1.9887,1.9893,1.993,1.9939,1.9943,1.991,1.9911,1.9911,1.9931,0,2.004,2.004,2.0022,2.0027,2.0024,1.9999,2.0,1.9988,1.9976,1.9971,1.9957,1.9952,1.9937,1.9932,1.9933,1.9918,1.9927,1.9917,1.9908,1.9908,1.991,1.9946,1.9956,1.9975,1.9933,1.9934,1.9934,0,2.0071,2.0062,2.0067,2.0047,2.0045,2.0046,2.0034,2.0031,2.0016,2.0007,1.9999,1.9982,1.9981,1.9965,1.9961,1.9954,1.9949,1.9941,1.9941,1.9939,1.9921,1.9942,1.9981,1.9983,1.9938,1.9937,1.9937,0,2.0107,2.0096,2.0097,2.0091,2.0068,2.0069,2.006,2.0045,2.0039,2.0029,2.0025,2.0016,2.001,2.0002,1.9982,1.9973,1.998,1.9963,1.9971,1.9971,1.9973,1.9973,2.0009,1.9973,1.9973,1.9972,1.9972,0,2.0137,2.014,2.0112,2.0112,2.0114,2.0093,2.0095,2.0083,2.007,2.0067,2.0046,2.0043,2.0018,2.0013,1.9998,1.9995,1.9994,1.9985,1.998,1.9986,1.9987,1.9981,1.9979,1.9973,1.9973,1.9973,1.9973,0,2.0176,2.0158,2.0157,2.0135,2.0129,2.0132,2.0113,2.0112,2.0097,2.0093,2.0091,2.0069,2.0061,2.0041,2.0028,2.0017,2.0019,2.0012,2.0023,2.002,2.0028,2.0027,2.0062,2.0064,2.0028,2.0028,2.0028,0,2.0196,2.0198,2.0176,2.0172,2.0164,2.0158,2.0152,2.0131,2.0125,2.0108,2.0109,2.0099,2.009,2.0077,2.006,2.0049,2.0041,2.0053,2.0039,2.0043,2.0038,2.0038,2.0037,2.0056,2.0057,2.0057,2.0057,0,2.0233,2.0223,2.0216,2.0205,2.0198,2.0188,2.0177,2.0175,2.0151,2.0146,2.0137,2.013,2.0115,2.0105,2.0091,2.0081,2.0064,2.0062,2.0063,2.0068,2.0074,2.0069,2.003,2.0061,2.0061,2.0061,2.006,2.006,2.0262,2.0261,2.0245,2.0237,2.0226,2.0216,2.0213,2.0199,2.0191,2.0178,2.0165,2.0157,2.0141,2.0121,2.0111,2.0104,2.0096,2.0098,2.0098,2.0098,2.01,2.0076,2.0102,2.0102,2.0101,2.0101,2.0101,0,2.0295,2.0284,2.0277,2.0261,2.0255,2.024,2.0227,2.0222,2.0215,2.0202,2.0193,2.0182,2.0171,2.0152,2.014,2.0138,2.013,2.0135,2.0134,2.0131,2.0109,2.0108,2.0141,2.0141,2.0141,2.0141,2.0141,2.0141,2.0312,2.031,2.0298,2.029,2.0278,2.027,2.0263,2.0253,2.0242,2.0231,2.0222,2.021,2.0193,2.0179,2.0169,2.0163,2.0159,2.0166,2.0158,2.0137,2.0133,2.013,2.0129,2.0166,2.0166,2.0181,2.0182,2.0182]},{"header":{"parameterUnit":"m.s-1","parameterCategory":1,"la1":30.2991,"la2":30.254,"lo1":-89.0895,"lo2":-89.0444,"dy":0.0017,"dx":0.0017,"nx":28,"ny":28,"refTime":"2024-05-18T03:00:00:Z","depth":0,"parameterNumber":3,"parameterNumberName":"V-component_of_WINDS"},"data":[0,0,0,0,0,0,0,0,0,0,0,0,0,0,0,0,0,0,0,0,0,0,0,0,0,0,0,0,0,0,0,0,0,0,0,0,0,0,0,0,0,0,0,0,0,0,0,0,0,0,0,0,0,0,0,0,0,0,4.148,4.1481,0,4.152,4.152,4.152,4.1509,4.1508,4.1507,4.1507,4.1542,4.1544,4.1545,0,0,0,0,0,0,0,0,0,0,0,0,0,4.1389,4.1391,4.148,4.1481,4.1481,4.1519,4.152,4.1521,4.1509,4.1508,4.1507,4.1506,4.1541,4.1543,4.1545,0,0,0,0,0,0,0,0,0,0,0,0,0,4.1429,4.1392,4.148,4.148,4.1481,4.1519,4.152,4.1521,4.1509,4.1508,4.1507,4.1506,4.1541,4.1543,4.1546,4.1585,0,0,4.1553,4.1555,0,0,0,0,0,0,0,0,4.1426,4.1432,4.148,4.148,4.1481,4.1508,4.1501,4.1542,4.151,4.1498,4.1507,4.1505,4.1531,4.1535,4.1544,4.1587,4.1588,4.1554,4.1555,4.1556,4.1557,0,0,0,0,0,0,0,4.1424,4.143,4.1495,4.148,4.1481,4.1476,4.1481,4.1509,4.1521,4.1499,4.1499,4.1504,4.1531,4.1542,4.1545,4.1589,4.1554,4.1556,4.1557,4.1558,4.1665,4.1666,0,0,0,0,0,0,4.1421,4.1428,4.1494,4.1497,4.145,4.1479,4.1484,4.1501,4.1521,4.1523,4.1505,4.1503,4.1538,4.1542,4.1546,4.1594,4.1556,4.1559,4.156,4.1663,4.1665,4.1666,0,0,0,0,0,0,4.1419,4.1427,4.1493,4.1462,4.147,4.1482,4.1501,4.1502,4.1513,4.1525,4.1526,4.1514,4.1538,4.1543,4.1576,4.1595,4.156,4.1562,4.1662,4.1664,4.1666,4.1689,0,0,0,0,0,0,4.1417,4.1427,4.1443,4.1463,4.1472,4.1523,4.1502,4.1504,4.1518,4.1516,4.1534,4.1535,4.1537,4.1572,4.1578,4.1598,4.1564,4.166,4.1663,4.1665,4.1686,4.1691,4.1695,0,0,0,0,0,4.1414,4.1447,4.1444,4.1452,4.1493,4.1524,4.1529,4.1532,4.1519,4.1535,4.1543,4.1535,4.1592,4.1576,4.1582,4.1603,4.1659,4.1662,4.1665,4.1684,4.169,4.1695,0,0,0,0,0,0,4.1427,4.145,4.1447,4.1488,4.1504,4.1522,4.1542,4.1538,4.1558,4.1555,4.1556,4.156,4.1594,4.1601,4.1583,4.1642,4.1623,4.1628,4.1636,4.1641,4.1646,4.1643,4.1566,0,0,0,0,0,4.1436,4.1461,4.1478,4.1513,4.1521,4.1531,4.1544,4.1545,4.1562,4.1568,4.1578,4.1593,4.1614,4.1628,4.1648,4.1687,4.169,4.1704,4.1709,4.1713,4.1716,4.1737,4.1743,4.1676,4.1676,4.1676,0,0,4.1452,4.1467,4.1483,4.1516,4.1529,4.1554,4.1536,4.1563,4.1581,4.1572,4.1604,4.1612,4.1628,4.1664,4.1681,4.1672,4.1736,4.1716,4.1719,4.1721,4.1741,4.1747,4.1753,4.1678,4.1678,4.1677,0,0,4.1495,4.1509,4.154,4.1554,4.1574,4.158,4.1587,4.1606,4.1611,4.1644,4.1638,4.1658,4.1694,4.1706,4.1717,4.1765,4.1758,4.1771,4.1795,4.1815,4.182,4.1825,4.1841,4.1847,4.1775,4.1775,4.1775,0,4.1512,4.1551,4.1555,4.1583,4.1597,4.1592,4.1621,4.1634,4.1659,4.1668,4.1658,4.1704,4.1715,4.1754,4.1765,4.1774,4.1782,4.1769,4.1819,4.1824,4.1828,4.1844,4.185,4.1776,4.1776,4.1776,4.1776,0,4.1571,4.1598,4.162,4.1647,4.1663,4.1691,4.1698,4.1714,4.1713,4.172,4.1752,4.1765,4.1788,4.1797,4.1796,4.1835,4.1829,4.1819,4.1801,4.1836,4.1851,4.1857,4.1778,4.1778,4.1777,4.1777,0,0,4.1624,4.1653,4.1661,4.1673,4.1695,4.1715,4.1743,4.1767,4.178,4.1797,4.182,4.1851,4.1842,4.1854,4.1854,4.1872,4.1908,4.186,4.186,4.1868,4.1952,4.1959,4.1966,4.1904,4.1905,4.1906,4.1951,0,4.1669,4.172,4.1724,4.1769,4.1793,4.1788,4.1812,4.1827,4.1833,4.1853,4.1859,4.1882,4.1868,4.1876,4.1893,4.19,4.1925,4.1897,4.1923,4.1924,4.192,4.1974,4.1982,4.2024,4.1956,4.1957,4.1958,0,4.1728,4.1749,4.1797,4.1816,4.1826,4.1848,4.187,4.189,4.1906,4.1909,4.1924,4.1921,4.1948,4.1928,4.1964,4.1945,4.1956,4.1961,4.1962,4.1965,4.1943,4.1978,4.2037,4.2044,4.1967,4.1966,4.1966,0,4.1761,4.1802,4.1836,4.1846,4.1869,4.1884,4.1894,4.191,4.1924,4.1942,4.1951,4.1972,4.1983,4.1998,4.2001,4.1986,4.2037,4.2017,4.2039,4.2039,4.205,4.2049,4.2112,4.2057,4.2057,4.2057,4.2057,0,4.1811,4.184,4.1851,4.1872,4.1904,4.1908,4.1939,4.1948,4.1962,4.1983,4.1979,4.1998,4.2001,4.202,4.2022,4.2051,4.2056,4.2059,4.2059,4.2059,4.2059,4.2067,4.2064,4.2058,4.2058,4.2058,4.2057,0,4.1854,4.1863,4.1899,4.1918,4.1924,4.1947,4.1962,4.1981,4.1987,4.2014,4.202,4.2029,4.2052,4.2056,4.2083,4.2084,4.2119,4.2116,4.2114,4.2114,4.2135,4.2133,4.2205,4.2214,4.2153,4.2154,4.2154,0,4.1885,4.1908,4.193,4.1945,4.1956,4.198,4.1995,4.1998,4.2014,4.2034,4.205,4.2073,4.2092,4.2129,4.2136,4.2156,4.2154,4.2177,4.2157,4.2156,4.2154,4.2153,4.2155,4.2181,4.2182,4.2183,4.2183,0,4.1939,4.1943,4.1965,4.1989,4.2007,4.2026,4.2043,4.2055,4.2061,4.2078,4.2103,4.2117,4.2145,4.2167,4.2187,4.2195,4.219,4.219,4.2196,4.2196,4.2194,4.2196,4.2125,4.2188,4.2187,4.2187,4.2187,4.2187,4.1977,4.1998,4.2017,4.2041,4.2055,4.2072,4.2091,4.21,4.2121,4.2145,4.2146,4.2172,4.2187,4.2214,4.2223,4.2243,4.2235,4.2244,4.2246,4.2249,4.2251,4.2191,4.2247,4.2246,4.2246,4.2246,4.2246,0,4.2032,4.2044,4.2067,4.2092,4.2112,4.2107,4.2125,4.2141,4.2166,4.2181,4.22,4.2227,4.2249,4.2259,4.228,4.2293,4.2292,4.2299,4.2298,4.23,4.2256,4.2249,4.23,4.23,4.23,4.23,4.23,4.23,4.2062,4.2096,4.2101,4.2141,4.2153,4.218,4.2191,4.2206,4.2218,4.225,4.2269,4.2276,4.2288,4.231,4.2329,4.2332,4.2339,4.2348,4.2349,4.2308,4.2303,4.2298,4.2291,4.235,4.235,4.2391,4.2391,4.2391]}]]